Weather History for KCOD - April, 2011

Change the Weather History Date:

Sunday, April 3, 2011

  Actual Average Record
Temperature  
Mean Temperature 32 °F -  
Max Temperature 37 °F 50 °F 73 °F (1939)
Min Temperature 26 °F 26 °F -5 °F (1936)
Degree Days  
Heating Degree Days 34    
Moisture  
Dew Point 14 °F    
Average Humidity 46    
Maximum Humidity 69    
Minimum Humidity 33    
Precipitation  
Precipitation 0.00 in - - ()
Sea Level Pressure  
Sea Level Pressure 29.85 in    
Wind  
Wind Speed 15 mph (NW)    
Max Wind Speed 30 mph    
Max Gust Speed 39 mph    
Visibility 10 miles    
Events      
Averages and records for this station are not official NWS values.
T = Trace of Precipitation, MM = Missing Value Source: NWS Daily Summary

Daily Weather History Graph

Daily Weather History Graph

Search for Another Location

Airport or City:

Trip Planner

Search our weather history database for the weather conditions in past years. The results will help you decide how hot, cold, wet, or windy it might be!

Date:

Astronomy

Apr. 03, 2011 Rise Set
Actual Time 6:53 AM MDT 7:45 PM MDT
Civil Twilight 6:24 AM MDT 8:15 PM MDT
Nautical Twilight 5:49 AM MDT 8:50 PM MDT
Astronomical Twilight 5:12 AM MDT 9:27 PM MDT
Moon 6:30 AM MDT (4/3) 8:18 PM MDT (4/3)
Length of Visible Light 13h 51m
Length of Day
12h 51m
New Moon, 0% of the Moon is Illuminated
Apr 3
New Moon
Apr 11
First Quarter
Apr 17
Full
Apr 24
Last Quarter
May 3
New

Hourly Weather History & Observations

Time (MDT) Temp. Windchill Dew Point Humidity Pressure Visibility Wind Dir Wind Speed Gust Speed Precip Events Conditions
12:15 AM 35.6 °F 26.6 °F 19.4 °F 52% 29.61 in 10.0 mi NNW 13.8 mph - N/A   Mostly Cloudy
12:35 AM 35.6 °F 27.1 °F 17.6 °F 48% 29.60 in 10.0 mi North 12.7 mph 24.2 mph N/A   Overcast
12:55 AM 35.6 °F 27.1 °F 17.6 °F 48% 29.60 in 10.0 mi NNW 12.7 mph 21.9 mph N/A   Overcast
1:15 AM 35.6 °F 27.1 °F 15.8 °F 44% 29.60 in 10.0 mi NNW 12.7 mph 23.0 mph N/A   Overcast
1:35 AM 35.6 °F 25.9 °F 15.8 °F 44% 29.61 in 10.0 mi NNW 16.1 mph 19.6 mph N/A   Overcast
1:55 AM 35.6 °F 26.2 °F 14.0 °F 41% 29.61 in 10.0 mi NNW 15.0 mph - N/A   Overcast
2:15 AM 35.6 °F 26.6 °F 14.0 °F 41% 29.62 in 10.0 mi North 13.8 mph - N/A   Overcast
2:35 AM 35.6 °F 27.1 °F 12.2 °F 38% 29.62 in 10.0 mi North 12.7 mph 18.4 mph N/A   Overcast
2:55 AM 35.6 °F 26.6 °F 12.2 °F 38% 29.62 in 10.0 mi North 13.8 mph 17.3 mph N/A   Overcast
3:15 AM 35.6 °F 28.0 °F 14.0 °F 41% 29.63 in 10.0 mi NNW 10.4 mph - N/A   Overcast
3:35 AM 35.6 °F 28.0 °F 15.8 °F 44% 29.63 in 10.0 mi NW 10.4 mph - N/A   Overcast
3:55 AM 35.6 °F 31.7 °F 17.6 °F 48% 29.64 in 10.0 mi NW 4.6 mph - N/A   Overcast
4:15 AM 35.6 °F 28.6 °F 12.2 °F 38% 29.65 in 10.0 mi WNW 9.2 mph - N/A   Overcast
4:35 AM 35.6 °F 28.6 °F 10.4 °F 35% 29.66 in 10.0 mi WNW 9.2 mph - N/A   Overcast
4:55 AM 35.6 °F 28.0 °F 10.4 °F 35% 29.66 in 10.0 mi North 10.4 mph - N/A   Overcast
5:15 AM 33.8 °F 24.3 °F 10.4 °F 38% 29.68 in 10.0 mi NNW 13.8 mph 20.7 mph N/A   Overcast
5:35 AM 32.0 °F 22.5 °F 10.4 °F 41% 29.70 in 10.0 mi NNW 12.7 mph - N/A   Overcast
5:55 AM 32.0 °F 23.0 °F 10.4 °F 41% 29.69 in 10.0 mi NNW 11.5 mph - N/A   Mostly Cloudy
6:15 AM 30.2 °F 26.7 °F 10.4 °F 44% 29.71 in 10.0 mi West 3.5 mph - N/A   Mostly Cloudy
6:35 AM 30.2 °F 22.6 °F 10.4 °F 44% 29.71 in 10.0 mi WNW 8.1 mph - N/A   Overcast
6:55 AM 30.2 °F 21.3 °F 10.4 °F 44% 29.72 in 10.0 mi NW 10.4 mph - N/A   Overcast
7:15 AM 30.2 °F 22.6 °F 10.4 °F 44% 29.73 in 10.0 mi NW 8.1 mph - N/A   Overcast
7:35 AM 30.2 °F 20.8 °F 10.4 °F 44% 29.74 in 10.0 mi NW 11.5 mph - N/A   Overcast
7:55 AM 30.2 °F 18.5 °F 10.4 °F 44% 29.76 in 10.0 mi North 17.3 mph 23.0 mph N/A   Overcast
8:15 AM 30.2 °F 17.8 °F 12.2 °F 47% 29.77 in 10.0 mi NNW 19.6 mph 23.0 mph N/A   Overcast
8:35 AM 30.2 °F 17.8 °F 12.2 °F 47% 29.79 in 10.0 mi North 19.6 mph 26.5 mph N/A   Overcast
8:55 AM 30.2 °F 17.4 °F 12.2 °F 47% 29.80 in 10.0 mi NNW 20.7 mph 25.3 mph N/A   Overcast
9:15 AM 30.2 °F 17.8 °F 14.0 °F 51% 29.81 in 10.0 mi NW 19.6 mph 25.3 mph N/A   Overcast
9:35 AM 30.2 °F 17.4 °F 14.0 °F 51% 29.81 in 10.0 mi NNW 20.7 mph 26.5 mph N/A   Mostly Cloudy
9:55 AM 33.8 °F 21.9 °F 15.8 °F 48% 29.82 in 10.0 mi NW 21.9 mph 26.5 mph N/A   Mostly Cloudy
10:15 AM 30.2 °F 18.9 °F 14.0 °F 51% 29.83 in 10.0 mi NNW 16.1 mph 25.3 mph N/A   Overcast
10:35 AM 30.2 °F 18.9 °F 14.0 °F 51% 29.85 in 10.0 mi NW 16.1 mph 23.0 mph N/A   Overcast
10:55 AM 32.0 °F 19.5 °F 12.2 °F 44% 29.85 in 10.0 mi NW 21.9 mph 27.6 mph N/A   Overcast
11:15 AM 33.8 °F 21.9 °F 12.2 °F 41% 29.86 in 10.0 mi NW 21.9 mph 26.5 mph N/A   Overcast
11:35 AM 33.8 °F 21.6 °F 12.2 °F 41% 29.86 in 10.0 mi NNW 23.0 mph 32.2 mph N/A   Overcast
11:55 AM 32.0 °F 18.9 °F 12.2 °F 44% 29.87 in 10.0 mi NNW 24.2 mph 33.4 mph N/A   Overcast
12:15 PM 33.8 °F 20.8 °F 10.4 °F 38% 29.87 in 10.0 mi NNW 26.5 mph 33.4 mph N/A   Overcast
12:35 PM 33.8 °F 20.1 °F 12.2 °F 41% 29.88 in 10.0 mi NW 29.9 mph 35.7 mph N/A   Overcast
12:55 PM 33.8 °F 20.5 °F 12.2 °F 41% 29.89 in 10.0 mi NNW 27.6 mph 34.5 mph N/A   Mostly Cloudy
1:15 PM 33.8 °F 20.8 °F 14.0 °F 44% 29.89 in 10.0 mi NNW 26.5 mph 34.5 mph N/A   Mostly Cloudy
1:35 PM 35.6 °F 22.5 °F 15.8 °F 44% 29.90 in 10.0 mi NNW 29.9 mph 39.1 mph N/A   Scattered Clouds
1:55 PM 35.6 °F 22.7 °F 15.8 °F 44% 29.91 in 10.0 mi NW 28.8 mph 39.1 mph N/A   Mostly Cloudy
2:15 PM 37.4 °F 25.2 °F 12.2 °F 36% 29.91 in 10.0 mi NW 28.8 mph 35.7 mph N/A   Scattered Clouds
2:35 PM 37.4 °F 25.9 °F 10.4 °F 33% 29.92 in 10.0 mi NW 25.3 mph 36.8 mph N/A   Clear
2:55 PM 37.4 °F 25.6 °F 10.4 °F 33% 29.93 in 10.0 mi NNW 26.5 mph 35.7 mph N/A   Clear
3:15 PM 35.6 °F 24.0 °F 15.8 °F 44% 29.95 in 10.0 mi NNW 23.0 mph 29.9 mph N/A   Clear
3:35 PM 33.8 °F 20.5 °F 15.8 °F 48% 29.96 in 10.0 mi NNW 27.6 mph 39.1 mph N/A   Mostly Cloudy
3:55 PM 33.8 °F 21.3 °F 17.6 °F 52% 29.97 in 10.0 mi North 24.2 mph 32.2 mph N/A   Mostly Cloudy
4:15 PM 33.8 °F 21.3 °F 17.6 °F 52% 29.98 in 10.0 mi NW 24.2 mph 31.1 mph N/A   Mostly Cloudy
4:35 PM 35.6 °F 26.2 °F 17.6 °F 48% 29.99 in 10.0 mi WNW 15.0 mph 23.0 mph N/A   Partly Cloudy
4:55 PM 35.6 °F 24.2 °F 15.8 °F 44% 30.00 in 10.0 mi WNW 21.9 mph 31.1 mph N/A   Clear
5:15 PM 33.8 °F 22.5 °F 14.0 °F 44% 30.01 in 10.0 mi NW 19.6 mph 28.8 mph N/A   Partly Cloudy
5:35 PM 32.0 °F 19.5 °F 15.8 °F 51% 30.02 in 10.0 mi NW 21.9 mph 25.3 mph N/A   Scattered Clouds
5:55 PM 33.8 °F 23.5 °F 17.6 °F 52% 30.03 in 10.0 mi NW 16.1 mph 25.3 mph N/A   Mostly Cloudy
6:15 PM 33.8 °F 24.3 °F 15.8 °F 48% 30.04 in 10.0 mi WNW 13.8 mph 20.7 mph N/A   Mostly Cloudy
6:35 PM 33.8 °F 23.9 °F 14.0 °F 44% 30.05 in 10.0 mi WNW 15.0 mph - N/A   Partly Cloudy
6:55 PM 28.4 °F 17.0 °F 17.6 °F 64% 30.06 in 3.0 mi NW 15.0 mph - N/A   Mostly Cloudy
7:15 PM 28.4 °F 18.0 °F 17.6 °F 64% 30.06 in 10.0 mi NW 12.7 mph - N/A   Mostly Cloudy
7:35 PM 28.4 °F 19.1 °F 17.6 °F 64% 30.08 in 10.0 mi WNW 10.4 mph - N/A   Mostly Cloudy
7:55 PM 28.4 °F 20.4 °F 17.6 °F 64% 30.09 in 10.0 mi West 8.1 mph - N/A   Overcast
8:15 PM 28.4 °F 20.4 °F 17.6 °F 64% 30.10 in 10.0 mi WNW 8.1 mph - N/A   Overcast
8:35 PM 28.4 °F 19.1 °F 17.6 °F 64% 30.11 in 10.0 mi NW 10.4 mph - N/A   Overcast
8:55 PM 26.6 °F 21.2 °F 17.6 °F 69% 30.12 in 10.0 mi NNW 4.6 mph - N/A   Overcast
9:15 PM 28.4 °F 20.4 °F 15.8 °F 59% 30.13 in 10.0 mi NW 8.1 mph - N/A   Overcast
9:35 PM 26.6 °F 17.5 °F 15.8 °F 64% 30.12 in 10.0 mi NNW 9.2 mph - N/A   Overcast
9:55 PM 26.6 °F 19.1 °F 17.6 °F 69% 30.12 in 10.0 mi NW 6.9 mph - N/A   Overcast
10:15 PM 26.6 °F 19.1 °F 15.8 °F 64% 30.12 in 10.0 mi North 6.9 mph - N/A   Scattered Clouds
10:35 PM 24.8 °F 19.1 °F 15.8 °F 69% 30.12 in 10.0 mi North 4.6 mph - N/A   Clear
10:55 PM 24.8 °F 20.5 °F 15.8 °F 69% 30.12 in 10.0 mi North 3.5 mph - N/A   Clear
11:15 PM 24.8 °F - 14.0 °F 64% 30.13 in 10.0 mi Calm Calm - N/A   Clear
11:35 PM 23.0 °F 18.4 °F 12.2 °F 63% 30.13 in 10.0 mi ESE 3.5 mph - N/A   Clear
11:55 PM 21.2 °F 14.9 °F 12.2 °F 68% 30.13 in 10.0 mi SSE 4.6 mph - N/A   Scattered Clouds